Tracking 23764 objects as of 17-Oct-2021
HD Live streaming from Space Station
objects crossing your sky now

STARLINK-3074

Track STARLINK-3074 now!
10-day predictions
STARLINK-3074 is classified as:


NORAD ID: 49170
Int'l Code: 2021-082AS
Perigee: 364.2 km
Apogee: 369.2 km
Inclination: 70.0 °
Period: 91.7 minutes
Semi major axis: 6737 km
RCS: Unknown
Launch date: September 14, 2021
Source: United States (US)
Launch site: AIR FORCE WESTERN TEST RANGE (AFWTR)
aabbcc
Your satellite tracking list
Your tracking list is empty




NASA's NSSDC Master Catalog

Two Line Element Set (TLE):
1 49170U 21082AS  21290.58334491 -.00015940  00000-0 -13185-3 0  9997
2 49170  70.0016  32.7510 0003755 286.3459 165.8989 15.69773972  5357
Source of the keplerian elements: AFSPC